Regional Weather Roundup
Issued by NWS Northern Indiana

Home | Current Version | Previous Version | Text Only | Print | Product List | Glossary Off
Versions: 1 2 3 4 5 6 7 8 9 10 11 12 13 14 15 16 17 18 19 20 21 22 23 24 25 26 27 28 29 30 31 32 33 34 35 36 37 38 39 40 41 42 43 44 45 46 47 48 49 50

000
ASUS43 KIWX 310600
RWRIWX

KIWX WEATHER ROUNDUP
NATIONAL WEATHER SERVICE NORTHERN INDIANA
200 AM EDT FRI JUL 31 2015

NOTE: "FAIR" INDICATES FEW OR NO CLOUDS BELOW 12,000 FEET WITH NO
SIGNIFICANT WEATHER AND/OR OBSTRUCTIONS TO VISIBILITY.

* THESE STATIONS ARE NOT UNDER NWS QUALITY CONTROL. THEY ALSO MAY NOT
  REPORT WEATHER SUCH AS PRECIPITATION OR FOG.

INZ001>027-310700-
NORTHERN INDIANA

CITY           SKY/WX    TMP DP  RH WIND       PRES   REMARKS
SOUTH BEND     CLEAR     68  60  75 SW7       30.02S
6HR MIN TEMP:  68; 6HR MAX TEMP:  82;

GOSHEN         CLEAR     65  60  84 SW6       30.01F
6HR MIN TEMP:  63; 6HR MAX TEMP:  78;

ANGOLA*        PTCLDY    64  57  77 CALM      30.01F
FORT WAYNE     CLEAR     65  60  84 SW5       30.03F
6HR MIN TEMP:  65; 6HR MAX TEMP:  80;


$$
INZ028>050-310700-
CENTRAL INDIANA

CITY           SKY/WX    TMP DP  RH WIND       PRES   REMARKS
LAFAYETTE      CLEAR     65  64  97 CALM      30.05S
6HR MIN TEMP:  65; 6HR MAX TEMP:  80;

KOKOMO*        CLEAR     66  61  82 W8        30.05S
6HR MIN TEMP:  66; 6HR MAX TEMP:  82;

MUNCIE*        CLEAR     67  60  78 W7        30.05F
6HR MIN TEMP:  66; 6HR MAX TEMP:  78;

INDIANAPOLIS   NOT AVBL

$$
MIZ043>046-050>051-056>058-064>065-071>073-077>080-310700-
SOUTHWEST LOWER MICHIGAN

CITY           SKY/WX    TMP DP  RH WIND       PRES   REMARKS
BATTLE CREEK   CLEAR     67  59  75 SW7       29.99F
6HR MIN TEMP:  67; 6HR MAX TEMP:  80;

BENTON HARBOR  CLEAR     73  64  73 W12       29.99S
6HR MIN TEMP:  67; 6HR MAX TEMP:  80;

COLDWATER*     MOCLDY    65  57  75 SW6       30.00F
6HR MIN TEMP:  64; 6HR MAX TEMP:  78;

HILLSDALE*     CLEAR     69  57  64 W3        30.01S
HOLLAND        CLEAR     74  59  59 NW7       29.99R
6HR MIN TEMP:  69; 6HR MAX TEMP:  79;

GRAND RAPIDS   CLEAR     67  60  78 W7        29.97S
6HR MIN TEMP:  67; 6HR MAX TEMP:  82;

KALAMAZOO      CLEAR     67  58  72 SW7       29.99F
6HR MIN TEMP:  66; 6HR MAX TEMP:  81;

STURGIS*       CLEAR     66  57  72 CALM      30.01S
THREE RIVERS*  FAIR      66  58  76 S3        30.01S

$$
OHZ001>008-015>018-024>025-310700-
NORTHWEST OHIO

CITY           SKY/WX    TMP DP  RH WIND       PRES   REMARKS
DEFIANCE       CLEAR     65  58  78 CALM      30.01S
6HR MIN TEMP:  65; 6HR MAX TEMP:  81; 6HR PCP: TRACE;

FINDLAY        CLEAR     65  57  75 SW6       30.00F
6HR MIN TEMP:  64; 6HR MAX TEMP:  81;

TOLEDO EXPRESS CLEAR     68  57  68 SW7       29.99F
6HR MIN TEMP:  68; 6HR MAX TEMP:  80;

TOLEDO METCALF CLEAR     68  58  70 SW6       29.99F
6HR MIN TEMP:  68; 6HR MAX TEMP:  81;

LIMA           CLEAR     64  58  80 CALM      30.03F
6HR MIN TEMP:  63; 6HR MAX TEMP:  79;


$$
AND FOR LAKE MICHIGAN COASTAL AND OPEN LAKE BUOY OBSERVATIONS

STATION/POSITION TEMP    WIND        PRES    VSBY  WAVE
                 AIR SEA DIR/SP/G                  HT/PER
                 (F)     (DEG/KT/KT) (MB)    (MI)  (FT/S)
CALUMET HARBOR    77     270/  3/  8   N/A
MICHIGAN CITY     76     220/ 12/ 14   N/A
BURNS HARBOR      77     230/  9/ 11 1016.6S
SAINT JOSEPH      74     210/  6/  8 1016.3R
4 MI NW BRIDGMAN  75 74  280/  8/ 10   N/A           1/ 3
MICHIGAN CITY     76 75  260/ 10/ 12   N/A           1/ 3

$$
&&



USA.gov is the U.S. government's official web portal to all federal, state and local government web resources and services.